CW7664 Weather Reports


Display with metric or nautical units.
time (UTC)temp
F
wind
direction
speed
MPH
gust
MPH
rain 1hr
in
rain 24hr
in
rain mn
in
humidity
%
barometer
mb
20260510110029 57 315 0.0 2.0 0.00 0.00 0.00 84 1011.3
20260510104530 57 281 1.0 3.0 0.00 0.00 0.00 84 1011.3
20260510103027 56 273 0.0 2.0 0.00 0.00 0.00 84 1011.1
20260510101527 56 295 1.0 2.0 0.00 0.00 0.00 84 1011.1
20260510100025 56 286 1.0 2.0 0.00 0.00 0.00 83 1011.1
20260510094524 56 285 0.0 2.0 0.00 0.00 0.00 84 1011.2
20260510093023 56 271 0.0 2.0 0.00 0.00 0.00 83 1011.4
20260510091521 55 273 0.0 2.0 0.00 0.00 0.00 83 1011.4
20260510090024 54 215 0.0 2.0 0.00 0.00 0.00 83 1011.2
20260510084519 54 321 0.0 0.0 0.00 0.00 0.00 83 1011.2
20260510083017 54 321 0.0 0.0 0.00 0.00 0.00 83 1011.2
20260510081515 54 321 0.0 0.0 0.00 0.00 0.00 83 1011.3
20260510080014 55 321 0.0 0.0 0.00 0.00 0.00 83 1011.4
20260510074513 55 321 0.0 0.0 0.00 0.00 0.00 82 1011.5
20260510073012 55 321 0.0 0.0 0.00 0.00 0.00 82 1011.6
20260510071511 55 321 0.0 0.0 0.00 0.00 0.00 82 1011.5
20260510070008 56 321 0.0 0.0 0.00 0.00 0.00 82 1011.6
20260510064508 56 321 0.0 0.0 0.00 0.00 0.00 82 1011.5
20260510063008 56 321 0.0 0.0 0.00 0.00 0.00 82 1011.4
20260510061506 57 321 0.0 0.0 0.00 0.00 0.00 81 1011.4
20260510060012 57 321 0.0 0.0 0.00 0.00 0.00 81 1011.5
20260510054506 57 321 0.0 0.0 0.00 0.00 0.00 81 1011.5
20260510053011 57 321 0.0 2.0 0.00 0.00 0.00 81 1011.5
20260510051505 58 321 0.0 1.0 0.00 0.00 0.00 80 1011.5
20260510050007 58 321 0.0 1.0 0.00 0.00 0.00 80 1011.5
20260510044507 59 321 0.0 1.0 0.00 0.00 0.00 79 1011.4
20260510043004 60 321 0.0 1.0 0.00 0.00 0.00 79 1011.3
20260510041504 60 259 0.0 1.0 0.00 0.00 0.00 80 1011.2
20260510040004 60 223 0.0 2.0 0.00 0.00 0.00 80 1011.0
20260510034503 61 278 0.0 2.0 0.00 0.00 0.00 80 1010.8
20260510033002 61 219 1.0 3.0 0.00 0.00 0.00 79 1010.7
20260510031506 61 209 1.0 4.0 0.00 0.00 0.00 79 1010.6
20260510030005 61 240 1.0 4.0 0.00 0.00 0.00 78 1010.4
20260510024501 62 268 0.0 4.0 0.00 0.00 0.00 77 1010.3
20260510023001 63 252 1.0 6.0 0.00 0.00 0.00 76 1010.3
20260510021604 63 283 2.0 5.0 0.00 0.00 0.00 76 1010.3
20260510020100 64 249 2.0 5.0 0.00 0.00 0.00 75 1010.2
20260510014618 65 242 2.0 7.0 0.00 0.00 0.00 74 1010.0
20260510013103 66 277 2.0 7.0 0.00 0.00 0.00 72 1010.0
20260510011559 67 246 3.0 7.0 0.00 0.00 0.00 70 1010.1
20260510010058 67 238 2.0 8.0 0.00 0.00 0.00 69 1010.1
20260510004558 68 332 3.0 9.0 0.00 0.00 0.00 68 1010.0
20260510003103 69 236 2.0 8.0 0.00 0.00 0.00 68 1010.0
20260510001557 70 221 3.0 10.0 0.00 0.00 0.00 66 1010.0
20260510000058 71 214 3.0 10.0 0.00 0.00 0.00 64 1010.0
20260509234556 71 315 3.0 9.0 0.00 0.00 0.00 65 1010.0
20260509233055 72 205 2.0 8.0 0.00 0.00 0.00 63 1010.1
20260509231557 72 262 4.0 10.0 0.00 0.00 0.00 63 1010.2
20260509230052 73 213 3.0 9.0 0.00 0.00 0.00 63 1010.2
20260509224558 73 246 3.0 10.0 0.00 0.00 0.00 62 1010.3
20260509223050 73 269 2.0 10.0 0.00 0.00 0.00 62 1010.5
20260509221601 73 344 3.0 9.0 0.00 0.00 0.00 62 1010.6
20260509220045 73 331 3.0 9.0 0.00 0.00 0.00 63 1010.8
20260509214544 73 318 3.0 7.0 0.00 0.00 0.00 62 1011.0
20260509213043 73 251 5.0 11.0 0.00 0.00 0.00 62 1011.1
20260509211544 73 246 3.0 9.0 0.00 0.00 0.00 62 1011.3
20260509210041 73 244 3.0 10.0 0.00 0.00 0.00 63 1011.4
20260509204538 73 360 2.0 9.0 0.00 0.00 0.00 63 1011.5
20260509203038 74 142 3.0 10.0 0.00 0.00 0.00 63 1011.4
20260509201547 74 209 4.0 7.0 0.00 0.00 0.00 62 1011.5
20260509200041 74 150 4.0 8.0 0.00 0.00 0.00 62 1011.6
20260509194534 74 218 3.0 11.0 0.00 0.00 0.00 63 1011.7
20260509193031 73 230 4.0 8.0 0.00 0.00 0.00 65 1011.8
20260509191529 72 231 3.0 8.0 0.00 0.00 0.00 65 1012.0
20260509190025 71 240 2.0 7.0 0.00 0.00 0.00 67 1012.2
20260509184526 70 203 2.0 9.0 0.00 0.00 0.00 68 1012.3
20260509183018 69 206 3.0 8.0 0.00 0.00 0.00 70 1012.5
20260509181515 69 213 3.0 7.0 0.00 0.00 0.00 71 1012.6
20260509180011 67 261 3.0 5.0 0.00 0.00 0.00 74 1012.7
20260509174507 65 302 1.0 5.0 0.00 0.00 0.00 78 1012.7
20260509173003 63 244 1.0 4.0 0.00 0.00 0.00 81 1012.8
20260509171559 62 335 1.0 5.0 0.00 0.00 0.00 82 1012.8
20260509170106 60 281 1.0 4.0 0.00 0.00 0.00 83 1012.8
20260509164557 60 106 0.0 4.0 0.00 0.00 0.00 84 1012.8
20260509163052 59 303 0.0 3.0 0.00 0.00 0.00 84 1012.9
20260509161556 59 144 0.0 3.0 0.00 0.00 0.00 84 1012.9
20260509160043 58 320 0.0 3.0 0.00 0.00 0.00 85 1012.9
20260509154538 58 296 0.0 1.0 0.00 0.00 0.00 85 1012.9
20260509153034 58 283 0.0 2.0 0.00 0.00 0.00 85 1013.0
20260509151536 57 287 0.0 1.0 0.00 0.00 0.00 84 1012.9
20260509150035 57 57 0.0 2.0 0.00 0.00 0.00 85 1012.8
20260509144532 57 52 0.0 2.0 0.00 0.00 0.00 85 1012.8
20260509143026 57 52 0.0 1.0 0.00 0.00 0.00 85 1012.8
20260509141525 57 97 0.0 2.0 0.00 0.00 0.00 84 1012.7
20260509140022 57 282 0.0 2.0 0.00 0.00 0.00 85 1012.7
20260509134520 57 282 0.0 1.0 0.00 0.00 0.00 84 1012.7
20260509133019 57 303 0.0 0.0 0.00 0.00 0.00 84 1012.5
20260509131524 57 320 0.0 0.0 0.00 0.00 0.00 84 1012.4
20260509130018 57 42 0.0 0.0 0.00 0.00 0.00 84 1012.2
20260509124520 57 42 0.0 0.0 0.00 0.00 0.00 84 1012.1
20260509123016 57 54 0.0 2.0 0.00 0.00 0.00 84 1012.0
20260509121523 57 355 0.0 1.0 0.00 0.00 0.00 84 1012.0
20260509120013 57 355 0.0 2.0 0.00 0.00 0.00 84 1012.1
20260509114522 56 355 0.0 2.0 0.00 0.00 0.00 84 1012.2
20260509113013 56 12 0.0 3.0 0.00 0.00 0.00 84 1012.1
20260509111512 57 355 0.0 2.0 0.00 0.00 0.00 84 1012.1